EN

Hourly Weather Brodovka

Today, 9 May, Sunday

Time Temperature Precipitation Wind Pressure Humidity
00:00 0°C° 0 mm 3 mps 745 mmHg 87%
01:00 0°C° 0 mm 3 mps 745 mmHg 88%
02:00 -1°C° 0 mm 3 mps 746 mmHg 91%
03:00 -1°C° 0 mm 3 mps 746 mmHg 90%
04:00 -1°C° 0 mm 2 mps 747 mmHg 89%
05:00 -1°C° 0 mm 2 mps 747 mmHg 88%
06:00 +1°C° 0 mm 3 mps 748 mmHg 76%
07:00 +3°C° 0 mm 3 mps 748 mmHg 64%
08:00 +5°C° 0 mm 3 mps 749 mmHg 53%
09:00 +7°C° 0 mm 3 mps 749 mmHg 47%
10:00 +9°C° 0 mm 3 mps 749 mmHg 42%
11:00 +10°C° 0 mm 3 mps 749 mmHg 37%
12:00 +10°C° 0 mm 3 mps 749 mmHg 36%
13:00 +12°C° 0 mm 2 mps 749 mmHg 35%
14:00 +13°C° 0 mm 2 mps 749 mmHg 35%
15:00 +13°C° 0 mm 2 mps 749 mmHg 36%
16:00 +13°C° 0 mm 2 mps 749 mmHg 38%
17:00 +13°C° 0 mm 1 mps 749 mmHg 39%
18:00 +11°C° 0 mm 1 mps 750 mmHg 47%
19:00 +9°C° 0 mm 1 mps 750 mmHg 54%
20:00 +8°C° 0 mm 1 mps 750 mmHg 62%
21:00 +6°C° 0 mm 2 mps 750 mmHg 65%
22:00 +5°C° 0 mm 2 mps 751 mmHg 67%
23:00 +5°C° 0 mm 2 mps 751 mmHg 70%

Tomorrow, 10 May, Monday

Time Temperature Precipitation Wind Pressure Humidity
00:00 +4°C° 0 mm 2 mps 751 mmHg 71%
01:00 +3°C° 0 mm 3 mps 751 mmHg 73%
02:00 +3°C° 0 mm 3 mps 751 mmHg 74%
03:00 +3°C° 0 mm 3 mps 752 mmHg 72%
04:00 +3°C° 0 mm 3 mps 752 mmHg 71%
05:00 +4°C° 0 mm 3 mps 752 mmHg 70%
06:00 +5°C° 0 mm 3 mps 752 mmHg 67%
07:00 +8°C° 0 mm 3 mps 752 mmHg 64%
08:00 +8°C° 0 mm 4 mps 752 mmHg 61%
09:00 +11°C° 0 mm 4 mps 752 mmHg 57%
10:00 +13°C° 0 mm 4 mps 752 mmHg 52%
11:00 +15°C° 0 mm 4 mps 752 mmHg 48%
12:00 +17°C° 0 mm 4 mps 752 mmHg 48%
13:00 +17°C° 0 mm 4 mps 752 mmHg 47%
14:00 +18°C° 0 mm 4 mps 752 mmHg 46%
15:00 +18°C° 0 mm 3 mps 752 mmHg 49%
16:00 +18°C° 0 mm 3 mps 752 mmHg 51%
17:00 +17°C° 0 mm 3 mps 752 mmHg 53%
18:00 +14°C° 0 mm 3 mps 752 mmHg 60%
19:00 +12°C° 0 mm 3 mps 752 mmHg 68%
20:00 +10°C° 0 mm 3 mps 752 mmHg 75%
21:00 +9°C° 0 mm 3 mps 752 mmHg 77%
22:00 +9°C° 0 mm 2 mps 752 mmHg 78%
23:00 +8°C° 0 mm 2 mps 752 mmHg 80%

Day after tomorrow, 11 May, Tuesday

Time Temperature Precipitation Wind Pressure Humidity
00:00 +7°C° 0 mm 2 mps 753 mmHg 79%
01:00 +7°C° 0 mm 2 mps 753 mmHg 79%
02:00 +6°C° 0 mm 2 mps 753 mmHg 79%
03:00 +6°C° 0 mm 2 mps 753 mmHg 79%
04:00 +6°C° 0 mm 2 mps 753 mmHg 78%
05:00 +6°C° 0 mm 2 mps 753 mmHg 78%
06:00 +8°C° 0 mm 2 mps 753 mmHg 71%
07:00 +10°C° 0 mm 3 mps 753 mmHg 63%
08:00 +12°C° 0 mm 3 mps 753 mmHg 56%
09:00 +13°C° 0 mm 3 mps 753 mmHg 51%
10:00 +16°C° 0 mm 3 mps 752 mmHg 47%
11:00 +17°C° 0 mm 3 mps 752 mmHg 42%
12:00 +18°C° 0 mm 4 mps 752 mmHg 40%
13:00 +18°C° 0 mm 4 mps 751 mmHg 39%
14:00 +19°C° 0 mm 4 mps 751 mmHg 38%
15:00 +19°C° 0 mm 4 mps 751 mmHg 42%
16:00 +19°C° 0 mm 3 mps 751 mmHg 46%
17:00 +18°C° 0 mm 3 mps 750 mmHg 50%
18:00 +16°C° 0 mm 3 mps 750 mmHg 60%
19:00 +14°C° 0 mm 3 mps 750 mmHg 69%
20:00 +12°C° 0 mm 3 mps 750 mmHg 79%
21:00 +11°C° 0 mm 3 mps 750 mmHg 83%
22:00 +12°C° 0 mm 2 mps 750 mmHg 87%
23:00 +10°C° 0 mm 2 mps 750 mmHg 91%

12 May, Wednesday

Time Temperature Precipitation Wind Pressure Humidity
00:00 +10°C° 0 mm 3 mps 750 mmHg 92%
01:00 +10°C° 0 mm 3 mps 750 mmHg 94%
02:00 +10°C° 0 mm 3 mps 749 mmHg 96%
03:00 +10°C° 0 mm 3 mps 750 mmHg 95%
04:00 +10°C° 0 mm 3 mps 750 mmHg 95%
05:00 +9°C° 0 mm 3 mps 750 mmHg 95%
06:00 +10°C° 0 mm 4 mps 750 mmHg 85%
07:00 +11°C° 0 mm 4 mps 750 mmHg 75%
08:00 +12°C° 0 mm 5 mps 750 mmHg 65%
09:00 +13°C° 0 mm 4 mps 750 mmHg 60%
10:00 +14°C° 0 mm 4 mps 750 mmHg 56%
11:00 +15°C° 0 mm 4 mps 749 mmHg 52%
12:00 +17°C° 0 mm 4 mps 749 mmHg 50%
13:00 +17°C° 0 mm 4 mps 748 mmHg 49%
14:00 +18°C° 0 mm 4 mps 748 mmHg 47%
15:00 +15°C° 0.1 mm 4 mps 747 mmHg 56%
16:00 +14°C° 0.1 mm 3 mps 747 mmHg 64%
17:00 +12°C° 0.1 mm 3 mps 746 mmHg 73%
18:00 +11°C° 0.4 mm 3 mps 745 mmHg 79%
19:00 +10°C° 0.4 mm 2 mps 744 mmHg 85%
20:00 +9°C° 0.4 mm 2 mps 743 mmHg 91%
21:00 +9°C° 1 mm 2 mps 742 mmHg 93%
22:00 +9°C° 1 mm 2 mps 741 mmHg 95%
23:00 +9°C° 1 mm 2 mps 741 mmHg 96%

13 May, Thursday

Time Temperature Precipitation Wind Pressure Humidity
00:00 +9°C° 2.5 mm 3 mps 740 mmHg 97%
01:00 +8°C° 2.5 mm 4 mps 740 mmHg 97%
02:00 +8°C° 2.5 mm 5 mps 740 mmHg 97%
03:00 +8°C° 1.8 mm 5 mps 740 mmHg 96%
04:00 +7°C° 1.8 mm 5 mps 741 mmHg 95%
05:00 +7°C° 1.8 mm 6 mps 741 mmHg 94%
06:00 +7°C° 1.2 mm 5 mps 741 mmHg 94%
07:00 +7°C° 1.2 mm 5 mps 741 mmHg 95%
08:00 +7°C° 1.2 mm 5 mps 742 mmHg 95%
09:00 +7°C° 0.7 mm 4 mps 742 mmHg 95%
10:00 +7°C° 0.7 mm 4 mps 742 mmHg 94%
11:00 +8°C° 0.7 mm 4 mps 742 mmHg 94%
12:00 +9°C° 0.2 mm 5 mps 742 mmHg 89%
13:00 +10°C° 0.2 mm 5 mps 742 mmHg 85%
14:00 +12°C° 0.2 mm 5 mps 742 mmHg 80%
15:00 +13°C° 0.1 mm 5 mps 742 mmHg 78%
16:00 +13°C° 0.1 mm 5 mps 742 mmHg 76%
17:00 +13°C° 0.1 mm 5 mps 742 mmHg 74%
18:00 +12°C° 0 mm 5 mps 742 mmHg 76%
19:00 +12°C° 0 mm 5 mps 742 mmHg 78%
20:00 +12°C° 0 mm 5 mps 742 mmHg 79%
21:00 +10°C° 0 mm 5 mps 742 mmHg 81%
22:00 +11°C° 0 mm 4 mps 742 mmHg 82%
23:00 +10°C° 0 mm 4 mps 742 mmHg 84%

14 May, Friday

Time Temperature Precipitation Wind Pressure Humidity
00:00 +10°C° 0 mm 4 mps 742 mmHg 84%
01:00 +10°C° 0 mm 4 mps 741 mmHg 85%
02:00 +10°C° 0 mm 3 mps 741 mmHg 86%
03:00 +10°C° 0 mm 4 mps 741 mmHg 86%
04:00 +10°C° 0 mm 4 mps 740 mmHg 87%
05:00 +10°C° 0 mm 5 mps 740 mmHg 87%
06:00 +10°C° 0.4 mm 5 mps 740 mmHg 90%
07:00 +12°C° 0.4 mm 5 mps 739 mmHg 92%
08:00 +12°C° 0.4 mm 5 mps 739 mmHg 95%
09:00 +13°C° 0.1 mm 4 mps 739 mmHg 93%
10:00 +14°C° 0.1 mm 4 mps 739 mmHg 91%
11:00 +14°C° 0.1 mm 4 mps 739 mmHg 88%
12:00 +15°C° 0.3 mm 4 mps 739 mmHg 87%
13:00 +16°C° 0.3 mm 3 mps 739 mmHg 85%
14:00 +16°C° 0.3 mm 3 mps 739 mmHg 83%
15:00 +16°C° 0.6 mm 3 mps 739 mmHg 84%
16:00 +16°C° 0.6 mm 3 mps 739 mmHg 85%
17:00 +16°C° 0.6 mm 3 mps 739 mmHg 86%
18:00 +14°C° 0 mm 3 mps 739 mmHg 89%
19:00 +13°C° 0 mm 3 mps 739 mmHg 92%
20:00 +13°C° 0 mm 2 mps 740 mmHg 95%
21:00 +13°C° 0 mm 2 mps 740 mmHg 96%
22:00 +12°C° 0 mm 2 mps 740 mmHg 96%
23:00 +12°C° 0 mm 2 mps 740 mmHg 96%
Show more

We Need Your Consent

Meteoprog and our Service Providers may store and access personal data such as cookies, device identifiers or other similar technologies on your device and process such data to personalise content and ads, as well as provide social media features and to analyse the traffic.

  • Store and/or access information on your device

    Cookies, device identifiers or other information can be stored or accessed on your device for the purposes indicated above.

  • Personalised ads and content, ad and content measurement, audience insights, and products development

    Ads and content can be personalised based on a profile. More data can be added to better personalise ads and content. Ad and content performance can be measured. Insights about the audience who saw the ads and content can be derived. Such data can be used to develop or improve user’s experience, systems and software.

By clicking ‘I Agree’ you will allow the use of indicated cookies, device identifiers, web beacons or other similar technologies. Your settings can be changed in the browser on your device.

For certain purposes, legitimate interests may be relied on, rather than consent. You can read more about this in our Privacy and Cookie Policy.